Location: Podia
(1.5569°N, 32.3469°E)
Time: 12:30:34
(UTC+00:00)

SR - All Passes

Search period start: 26 September 2020 00:00
Search period end: 06 October 2020 00:00
Orbit: 583 x 873 km, 66.7° (Epoch: 26 September)

Date Brightness Start Highest point End Pass type
(mag) Time Alt. Az. Time Alt. Az. Time Alt. Az.
26 Sep - 06:48:03 10° SW 06:52:28 41° WNW 06:56:36 10° N daylight
26 Sep - 17:30:15 10° N 17:34:53 31° ENE 17:39:48 10° SE visible
26 Sep - 19:13:04 10° WNW 19:16:46 19° WSW 19:20:37 10° SSW night (unlit)
27 Sep - 05:58:10 10° SSW 06:02:52 65° ESE 06:07:14 10° NNE daylight
27 Sep - 16:43:11 10° NE 16:45:18 12° ENE 16:47:27 10° E visible
27 Sep - 18:21:57 10° NW 18:27:01 45° WSW 18:32:28 10° S visible
28 Sep - 05:09:29 10° SSE 05:13:11 22° ESE 05:16:40 10° ENE daylight
28 Sep - 06:52:08 10° WSW 06:54:54 16° WNW 06:57:34 10° NNW daylight
28 Sep - 17:32:05 10° NNW 17:37:22 73° ENE 17:43:03 10° SSE visible
29 Sep - 06:00:52 10° SW 06:05:21 45° WNW 06:09:32 10° N daylight
29 Sep - 16:43:14 10° NNE 16:47:47 29° ENE 16:52:36 10° SE visible
29 Sep - 18:25:43 10° WNW 18:29:39 20° WSW 18:33:46 10° SSW visible
30 Sep - 05:11:06 10° S 05:15:45 58° ESE 05:20:04 10° NNE daylight
30 Sep - 15:56:40 10° NE 15:58:11 11° ENE 15:59:45 10° E visible
30 Sep - 17:34:45 10° NW 17:39:55 49° WSW 17:45:27 10° S visible
01 Oct - 04:22:35 10° SSE 04:26:03 20° ESE 04:29:20 10° ENE daylight
01 Oct - 06:04:46 10° WSW 06:07:47 17° WNW 06:10:41 10° NNW daylight
01 Oct - 16:44:59 10° NNW 16:50:16 67° ENE 16:55:57 10° SSE visible
02 Oct - 05:13:42 10° SW 05:18:13 50° WNW 05:22:26 10° N daylight
02 Oct - 15:56:15 10° NNE 16:00:41 27° ENE 16:05:22 10° SE visible
02 Oct - 17:38:23 10° WNW 17:42:32 22° WSW 17:46:53 10° SSW visible
03 Oct - 04:24:02 10° S 04:28:37 52° ESE 04:32:52 10° NNE daylight
03 Oct - 15:10:41 10° ENE 15:11:05 10° ENE 15:11:29 10° ENE daylight
03 Oct - 16:47:34 10° NNW 16:52:49 54° WSW 16:58:25 10° S visible
04 Oct - 03:35:42 10° SSE 03:38:54 18° ESE 03:41:58 10° ENE daylight
04 Oct - 05:17:26 10° WSW 05:20:39 19° WNW 05:23:45 10° NNW daylight
04 Oct - 15:57:53 10° N 16:03:10 61° ENE 16:08:49 10° SSE visible
05 Oct - 04:26:33 10° SSW 04:31:06 56° WNW 04:35:20 10° N daylight
05 Oct - 15:09:16 10° NNE 15:13:35 25° ENE 15:18:07 10° SE daylight
05 Oct - 16:51:04 10° WNW 16:55:25 24° WSW 16:59:58 10° SSW visible
